Preview of NWS' New Version of Forecast
This preview is not operational and should not be used for support decisions.

Regional Weather Roundup (RWR)

Issued by National Weather Service (NWS)

                            
000
ASUS45 KCYS 192110
RWRWY 

WYOMING REGIONAL WEATHER ROUNDUP
NATIONAL WEATHER SERVICE CHEYENNE WY
300 PM MDT FRI APR 19 2019

NOTE:  "FAIR" INDICATES FEW OR NO CLOUDS BELOW 12,000 FEET
WITH NO SIGNIFICANT WEATHER AND/OR OBSTRUCTIONS TO VISIBILITY.

WYZ001-192200-
...YELLOWSTONE NATIONAL PARK...
  
CITY           SKY/WX    TMP DP  RH WIND       PRES   REMARKS
LK YELLOWSTONE   N/A     54  27  35 SW7       30.18F                  
W YELLOWSTONE  NOT AVBL                                               

$$
WYZ002>013-054>058-071-098>099-192200-
...NORTHERN WYOMING...
  
CITY           SKY/WX    TMP DP  RH WIND       PRES   REMARKS
JACKSON        FAIR      57  31  37 SW9       30.14F                  
CODY           FAIR      74  30  19 W12       29.97F                  
GREYBULL       FAIR      76  31  19 VRB5      29.92F                  
WORLAND        FAIR      76  29  17 NE7       29.94F                  
SHERIDAN       FAIR      77  36  22 NW8G21    29.91F                  
BUFFALO        FAIR      72  34  24 VRB3      29.97F                  
GILLETTE       FAIR      72  37  28 W13G22    29.94F                  
HULETT         FAIR      72  34  25 W7G18     29.94F                  
NEWCASTLE      FAIR      72  30  21 NW16G28   29.96F                  

$$
WYZ014>020-022>026-101>103-192200-
...CENTRAL WYOMING...
  
CITY           SKY/WX    TMP DP  RH WIND       PRES   REMARKS
BIG PINEY      FAIR      65  27  23 S6        30.15F                  
PINEDALE       FAIR      61  32  33 NE9       30.17F                  
DUBOIS         FAIR      63  23  22 W18       30.10F                  
LANDER         FAIR      72  29  20 E6        30.00F                  
RIVERTON       FAIR      72  29  20 S8        30.02F                  
CASPER         FAIR      70  32  24 NW7G17    30.03F                  
DOUGLAS        FAIR      72  33  24 W15G24    30.02F                  

$$
WYZ021-027>030-104>119-192200-
...SOUTHERN WYOMING...
  
CITY           SKY/WX    TMP DP  RH WIND       PRES   REMARKS
EVANSTON       FAIR      60  27  28 W10       30.19F                  
KEMMERER       FAIR      63  27  25 SW14G21   30.20F                  
FORT BRIDGER   FAIR      66  25  20 NW10G18   30.22F                  
ROCK SPRINGS   FAIR      66  24  20 W14G21    30.16F                  
DIXON          FAIR      66  24  20 S13G20    30.20F                  
RAWLINS        FAIR      67  28  23 W17G26    30.14F                  
SARATOGA       FAIR      64  27  24 SW14G25   30.18F                  
LARAMIE        FAIR      67  24  19 NW15G28   30.13F                  
CHEYENNE       FAIR      69  27  20 N17G24    30.07F                  
TORRINGTON     FAIR      75  32  20 VRB6G18   29.97F                  
PINE BLUFFS    FAIR      70  28  21 NW13      30.05F                  

$$